Location: Unspecified
(48.5539°N, 71.6350°W)
Time: 01:37:02
(UTC-04:00)

OTV 5 (USA 277) - Visible Passes

Search period start: 19 June 2019 00:00
Search period end: 29 June 2019 00:00
Orbit: 310 x 325 km, 54.5° (Epoch: 08 May)

Date Brightness Start Highest point End Pass type
(mag) Time Alt. Az. Time Alt. Az. Time Alt. Az.
19 Jun ? 00:53:48 15° W 00:55:48 39° NNW 00:58:27 10° NE visible
19 Jun ? 02:28:20 10° NW 02:30:37 22° N 02:32:54 10° NE visible
19 Jun ? 23:35:21 42° SW 23:36:09 77° SSE 23:38:55 10° ENE visible
20 Jun ? 01:08:15 10° WNW 01:10:42 27° NNW 01:13:09 10° NE visible
20 Jun ? 02:43:14 10° NW 02:45:36 24° N 02:47:57 10° ENE visible
20 Jun ? 22:14:31 10° SSW 22:16:46 22° SE 22:19:00 10° E visible
20 Jun ? 23:48:12 10° WSW 23:50:55 51° NNW 23:53:39 10° NE visible
21 Jun ? 01:23:22 10° WNW 01:25:40 23° N 01:27:59 10° NE visible
21 Jun ? 02:58:00 10° NW 03:00:33 31° NNE 03:03:04 10° E visible
21 Jun ? 22:28:39 10° SW 22:31:21 50° SE 22:34:03 10° ENE visible
22 Jun ? 00:03:14 10° W 00:05:47 31° NNW 00:08:20 10° NE visible
22 Jun ? 01:38:21 10° NW 01:40:40 23° N 01:42:57 10° ENE visible
22 Jun ? 03:12:42 10° NW 03:15:25 51° NNE 03:18:07 10° ESE visible
22 Jun ? 22:43:18 10° WSW 22:46:04 72° NNW 22:48:50 10° ENE visible
23 Jun ? 00:18:22 10° WNW 00:20:44 24° N 00:23:06 10° NE visible
23 Jun ? 01:53:11 10° NW 01:55:38 27° NNE 01:58:04 10° ENE visible
23 Jun ? 03:27:25 10° WNW 03:30:11 78° SW 03:32:56 10° SE visible
23 Jun ? 22:58:15 10° W 23:00:54 39° NNW 23:03:33 10° NE visible
24 Jun ? 00:33:25 10° NW 00:35:43 22° N 00:38:00 10° NE visible
24 Jun ? 02:07:54 10° NW 02:10:32 39° NNE 02:13:10 10° E visible
24 Jun ? 03:42:19 10° WNW 03:44:51 33° SW 03:47:21 10° SSE visible
24 Jun ? 21:38:29 10° SW 21:41:14 78° SSE 21:44:01 10° ENE visible
24 Jun ? 23:13:21 10° WNW 23:15:48 27° NNW 23:18:15 10° NE visible
25 Jun ? 00:48:20 10° NW 00:50:42 24° N 00:53:03 10° ENE visible
25 Jun ? 02:22:36 10° WNW 02:25:22 72° NNE 02:28:07 10° ESE visible
25 Jun ? 03:57:41 10° W 03:59:22 15° SW 04:01:03 10° S visible
25 Jun ? 21:53:18 10° WSW 21:56:01 51° NNW 21:58:45 10° NE visible
25 Jun ? 23:28:28 10° WNW 23:30:46 23° N 23:33:05 10° NE visible
26 Jun ? 01:03:05 10° NW 01:05:39 31° NNE 01:08:10 10° E visible
26 Jun ? 02:37:23 10° WNW 02:40:05 50° SW 02:42:45 10° SE visible
26 Jun ? 22:08:21 10° W 22:10:53 31° NNW 22:13:26 10° NE visible
26 Jun ? 23:43:27 10° NW 23:45:45 23° N 23:48:04 10° ENE visible
27 Jun ? 01:17:47 10° NW 01:20:31 51° NNE 01:22:27 17° E visible
27 Jun ? 02:52:27 10° W 02:53:11 15° W 02:53:11 15° W visible
27 Jun ? 22:23:28 10° WNW 22:25:50 24° N 22:28:12 10° NE visible
27 Jun ? 23:58:16 10° NW 00:00:44 27° NNE 00:03:10 10° ENE visible
28 Jun ? 01:32:31 10° WNW 01:34:56 62° W 01:34:56 62° W visible
28 Jun ? 22:38:31 10° NW 22:40:49 22° N 22:43:06 10° NE visible
